Change the Weather History Date:

Friday, January 10, 2014

  Actual Average Record
Temperature  
Mean Temperature 80 °F -  
Max Temperature 82 °F 81 °F 84 °F (2003)
Min Temperature 78 °F 69 °F 66 °F (2001)
Cooling Degree Days 15    
Growing Degree Days 30 (Base 50)    
Moisture  
Dew Point 69 °F    
Average Humidity 68    
Maximum Humidity 76    
Minimum Humidity 62    
Precipitation  
Precipitation 0.00 in - - ()
Sea Level Pressure  
Sea Level Pressure 30.10 in    
Wind  
Wind Speed 10 mph (ENE)    
Max Wind Speed 14 mph    
Max Gust Speed 22 mph    
Visibility 10 miles    
Events      
Averages and records for this station are not official NWS values.
T = Trace of Precipitation, MM = Missing Value Source: NWS Daily Summary

Daily Weather History Graph

Daily Weather History Graph

Search for Another Location

Airport or City:

Trip Planner

Search our weather history database for the weather conditions in past years. The results will help you decide how hot, cold, wet, or windy it might be!

Date:

Astronomy

Jan. 10, 2014 Rise Set
Actual Time 6:56 AM AST 6:03 PM AST
Civil Twilight 6:33 AM AST 6:27 PM AST
Nautical Twilight 6:06 AM AST 6:54 PM AST
Astronomical Twilight 5:39 AM AST 7:20 PM AST
Moon 1:54 PM AST (1/10) 2:13 AM AST (1/10)
Length of Visible Light 11h 53m
Length of Day
11h 06m
Waxing Gibbous, 74% of the Moon is Illuminated
Jan 10
Waxing Gibbous
Jan 16
Full
Jan 24
Last Quarter
Jan 30
New
Feb 6
First Quarter

Hourly Weather History & Observations

Time (AST) Temp. Heat Index Dew Point Humidity Pressure Visibility Wind Dir Wind Speed Gust Speed Precip Events Conditions
12:53 AM 78.1 °F - 70.0 °F 76% 30.13 in 10.0 mi East 9.2 mph - N/A   Scattered Clouds
1:53 AM 78.1 °F - 68.0 °F 71% 30.10 in 10.0 mi East 12.7 mph 18.4 mph N/A   Partly Cloudy
2:53 AM 78.1 °F - 66.9 °F 68% 30.09 in 10.0 mi East 8.1 mph - N/A   Partly Cloudy
3:53 AM 78.1 °F - 68.0 °F 71% 30.07 in 10.0 mi ENE 6.9 mph - N/A   Clear
4:53 AM 78.1 °F - 69.1 °F 74% 30.07 in 10.0 mi East 10.4 mph 16.1 mph N/A   Mostly Cloudy
5:53 AM 78.1 °F - 66.9 °F 68% 30.08 in 10.0 mi East 8.1 mph - 0.00 in   Overcast
6:53 AM 78.1 °F - 66.9 °F 68% 30.09 in 10.0 mi East 8.1 mph - N/A   Clear
7:53 AM 80.1 °F 83.2 °F 70.0 °F 71% 30.12 in 10.0 mi ENE 9.2 mph - N/A   Mostly Cloudy
8:53 AM 81.0 °F 84.1 °F 69.1 °F 67% 30.14 in 10.0 mi East 10.4 mph - N/A   Scattered Clouds
9:53 AM 82.0 °F 85.5 °F 69.1 °F 65% 30.15 in 10.0 mi East 11.5 mph - N/A   Mostly Cloudy
10:53 AM 82.0 °F 85.9 °F 70.0 °F 67% 30.14 in 10.0 mi ENE 11.5 mph - N/A   Scattered Clouds
11:53 AM 81.0 °F 84.4 °F 70.0 °F 69% 30.13 in 10.0 mi ENE 10.4 mph - N/A   Overcast
12:53 PM 82.9 °F 88.0 °F 72.0 °F 69% 30.10 in 10.0 mi ENE 11.5 mph 21.9 mph N/A   Mostly Cloudy
1:53 PM 82.9 °F 87.0 °F 70.0 °F 65% 30.07 in 10.0 mi ENE 13.8 mph 21.9 mph 0.00 in   Overcast
2:53 PM 82.9 °F 87.0 °F 70.0 °F 65% 30.06 in 10.0 mi ENE 11.5 mph 20.7 mph N/A   Scattered Clouds
3:53 PM 82.0 °F 86.3 °F 71.1 °F 69% 30.06 in 10.0 mi ENE 13.8 mph 20.7 mph N/A   Overcast
4:53 PM 80.1 °F 83.2 °F 70.0 °F 71% 30.06 in 10.0 mi East 11.5 mph 19.6 mph N/A   Overcast
5:53 PM 79.0 °F - 69.1 °F 72% 30.07 in 10.0 mi ENE 12.7 mph 19.6 mph N/A   Overcast
6:53 PM 79.0 °F - 68.0 °F 69% 30.09 in 10.0 mi ENE 10.4 mph 20.7 mph N/A   Overcast
7:53 PM 79.0 °F - 66.9 °F 66% 30.10 in 10.0 mi ENE 13.8 mph 17.3 mph N/A   Scattered Clouds
8:53 PM 79.0 °F - 66.9 °F 66% 30.12 in 10.0 mi ENE 12.7 mph 20.7 mph N/A   Mostly Cloudy
9:53 PM 78.1 °F - 64.0 °F 62% 30.13 in 10.0 mi ENE 8.1 mph 16.1 mph N/A   Partly Cloudy
10:53 PM 79.0 °F - 66.0 °F 64% 30.13 in 10.0 mi ENE 10.4 mph 19.6 mph N/A   Partly Cloudy
11:53 PM 78.1 °F - 66.9 °F 68% 30.12 in 10.0 mi East 6.9 mph - N/A   Partly Cloudy